User: anonymous   Login
Location: St. Louis
(38.6270°N, 90.1994°W)
Time: 23:24:27
(UTC-06:00)
Language:

FO-99 - Orbit

View from above orbital plane
View from above orbital plane
View from above satellite
View from above satellite

Ground track
Ground track

The orbit data is extracted from the following two-line orbital elements,

1 43937U 19003F   22027.58506779  .00005314  00000-0  19957-3 0  9996
2 43937  97.1510  66.6233 0020544 298.8831  61.0347 15.27405003168453
Epoch (UTC): 27 January 2022 14:02:29
Eccentricity: 0.0020544
inclination: 97.1510°
perigee height: 469 km
apogee height: 497 km
right ascension of ascending node: 66.6233°
argument of perigee: 298.8831°
revolutions per day: 15.27405003
mean anomaly at epoch: 61.0347°
orbit number at epoch: 16845

The dashed part of the orbit path shows where the satellite is in the earth's shadow,  

DLR